Погода в Андижане

Узбекистан     40˚36′31″N   68˚14′34″E
темп.,
°C
ветер,
м/с
пор.,
м/с
влажн.,
%
обл.,
%
осадки,
мм/ч
давл.,
гПа
погр.,
м
16 января, сб
сб1623:00+10˚вюв715360 0.0 1015258
02:00+10˚юв714330 0.0 1015226
05:00+9˚вюв713300 0.0 1015196
08:00+9˚юв6113044 0.0 1016167
11:00+15˚юв8122059 0.0 1016310
14:00+18˚юв682054 0.0 1016307
17:00+14˚вюв462951 0.0 101684
20:00+10˚вюв233746 0.0 101830
17 января, вс
вс1723:00+9˚ссз124123 0.0 101922
02:00+6˚сз12470 0.0 101922
05:00+5˚ююз23500 0.0 101824
08:00+4˚ю11520 0.0 101822
11:00+10˚юв47360 0.0 1016440
14:00+13˚в33310 0.0 1013536
17:00+11˚всв22360 0.0 101122
20:00+8˚св124784 0.0 101222
18 января, пн
пн1823:00+6˚юв224492 0.0 101122
02:00+5˚вюв3443100 0.0 101173
05:00+5˚вюв4742100 0.0 1010128
08:00+6˚вюв4938100 0.0 1011170
11:00+11˚юв5827100 0.0 1011222
14:00+14˚юв3422100 0.0 1011226
17:00+13˚вюв3527100 0.0 101290
20:00+11˚юв2339100 0.0 101426
19 января, вт
вт1923:00+11˚ссв0033100 0.0 101422
02:00+10˚в3438100 0.0 101557
05:00+7˚вюв454374 0.0 101583
08:00+7˚вюв45420 0.0 101759
11:00+13˚юв343223 0.1 1017201
14:00+18˚юз372456 0.0 10161314
17:00+15˚зюз233148 0.0 101850
20:00+12˚ююз233977 0.0 102050
20 января, ср
ср2023:00+10˚юз235689 0.3 102130
02:00+9˚ююз33530 0.0 102239
05:00+8˚вюв23490 0.0 102223
08:00+8˚юв7154149 0.0 1022314
11:00+12˚вюв11183475 0.0 1019581
14:00+15˚юв12173416 0.0 1015722
17:00+13˚вюв10174026 0.0 1015548
20:00+11˚вюв917420 0.0 1016370